Regional Weather Roundup
Issued by NWS Sterling, VA

Home | Current Version | Previous Version | Text Only | Print | Product List | Glossary Off
Versions: 1 2 3 4 5 6 7 8 9 10 11 12 13 14 15 16 17 18 19 20 21 22 23 24 25 26 27

000
ASUS41 KLWX 251711
RWRLWX

REGIONAL WEATHER ROUNDUP
NATIONAL WEATHER SERVICE BALTIMORE MD/WASHINGTON DC
100 PM EDT SUN JUN 25 2017

Note: "FAIR" indicates few or no clouds below 12,000 feet
with no significant weather and/or obstructions to visibility.
 TC=TEMPERATURE CELSIUS

 * =Non NWS site. Station does not report precipitation (e.g. rain,
    snow, etc.), thunder, or fog.

DCZ001-MDZ009-015-VAZ040>042-051-053>054-251800-
WASHINGTON METRO

CITY           SKY/WX    TMP DP  RH WIND       PRES   REMARKS
WASHINGTON NAT PTSUNNY   85  59  41 NW14      30.03F
DULLES         PTSUNNY   81  52  36 W15       30.03F
ANDREWS AFB    PTSUNNY   83  56  40 NW10      30.02F
FT BELVOIR     MOSUNNY   85  58  39 W8        30.03F
QUANTICO       PTSUNNY   84  58  40 NW8       30.03F
COLLEGE PARK*  MOSUNNY   80  58  46 NW6       30.03S
LEESBURG*      MOSUNNY  N/A N/A N/A W9G18     30.05S
MANASSAS*      MOSUNNY   83  59  44 NW9       30.03F
GAITHERSBURG*  MOSUNNY   80  58  46 W10G20    30.05F

$$

MDZ006>007-011-014-251800-
BALTIMORE METRO

CITY           SKY/WX    TMP DP  RH WIND       PRES   REMARKS
BWI AIRPORT    PTSUNNY   81  58  45 W14       30.01F
MD SCIENCE CTR   N/A     84  56  38 MISG      30.02S
MARTIN STATE   PTSUNNY   82  66  57 W6        30.02F
ANNAPOLIS      MOSUNNY   80  59  48 N12       30.01F
FORT MEADE*    PTSUNNY   79  59  50 NW9       30.05S

$$

MDZ012-015-019>023-251800-
MARYLAND EASTERN SHORE

CITY           SKY/WX    TMP DP  RH WIND       PRES   REMARKS
OCEAN CITY     CLOUDY    79  64  60 NE9       30.02R
SALISBURY      CLOUDY    84  63  49 NW7       30.01F
BAY BRIDGE AP* MOSUNNY   82  59  44 W7        30.02S
CAMBRIDGE*     SUNNY     82  55  39 NW8       30.02F
EASTON*        MOSUNNY   84  57  39 W5        30.05F

$$

MDZ017>025-251800-
SOUTHERN MARYLAND

CITY           SKY/WX    TMP DP  RH WIND       PRES   REMARKS
PATUXENT RIVER CLOUDY    83  59  44 NE8       30.03S
ST INIGOES     NOT AVBL
LEONARDTOWN*   CLOUDY    81  59  47 CALM      30.05S

$$

MDZ003>005-251800-
NORTH CENTRAL MARYLAND

CITY           SKY/WX    TMP DP  RH WIND       PRES   REMARKS
FREDERICK*     MOSUNNY   82  50  32 SW15G21   30.06F
HAGERSTOWN APT MOSUNNY   80  54  40 W10G20    30.04S
WESTMINSTER*   MOSUNNY   81  54  39 W12G18    30.03F

$$

MDZ501>502-251800-
WESTERN MARYLAND

CITY           SKY/WX    TMP DP  RH WIND       PRES   REMARKS
OAKLAND*       NOT AVBL
CUMBERLAND*    SUNNY     79  45  29 W14G20    30.10S

$$

VAZ025>031-251800-
SHENANDOAH VALLEY

CITY           SKY/WX    TMP DP  RH WIND       PRES   REMARKS
WINCHESTER*    MOSUNNY   79  50  36 W13G21    30.05F
FRONT ROYAL*   MOSUNNY   81  52  36 W9        30.05F
LURAY*         MOSUNNY   81  50  34 SW8       30.07F
NEW MARKET*    CLOUDY    77  50  38 CALM      30.06F
STAUNTON*      MOSUNNY   77  53  42 W6        30.11S
WAYNESBORO*    PTSUNNY   75  55  49 W6        30.11S

$$

WVZ021-048>050-054>055-251800-
EASTERN WEST VIRGINIA PANHANDLE

CITY           SKY/WX    TMP DP  RH WIND       PRES   REMARKS
MARTINSBURG    MOSUNNY   81  49  32 W18       30.04F
PETERSBURG*    SUNNY     78  51  37 W16G22    30.10S

$$

VAZ036>039-050-251800-
CENTRAL FOOTHILLS

CITY           SKY/WX    TMP DP  RH WIND       PRES   REMARKS
CHARLOTTESVILL MOSUNNY   82  56  40 W6        30.06F
CULPEPER*      MOSUNNY   83  60  44 NW7       30.05F
ORANGE*        MOSUNNY   81  55  41 W7        30.05F
GORDONSVILLE*  MOSUNNY   82  58  43 S7        30.04F
WARRENTON*     MOSUNNY   84  51  32 SW7       30.04F

$$

VAZ055>057-251800-
NORTH AND CENTRAL PIEDMONT

CITY           SKY/WX    TMP DP  RH WIND       PRES   REMARKS
FREDERICKSBRG* MOSUNNY   83  59  43 NW5       30.02F
STAFFORD*      MOSUNNY   83  55  38 W3        30.07F

$$

NCZ024-NYZ072-PAZ021-071-VAZ022-071-251800-
OTHER REGIONAL OBSERVATIONS

CITY           SKY/WX    TMP DP  RH WIND       PRES   REMARKS
NEW YORK CITY  MOSUNNY   79  56  45 VRB5      29.99F
PHILADELPHIA   PTSUNNY   84  56  38 W14G20    29.99F
PITTSBURGH     MOSUNNY   71  50  47 W14G20    30.07F
ROANOKE        MOSUNNY   78  52  40 NW14      30.15F
RICHMOND       PTSUNNY   83  64  52 N6        30.04F
RALEIGH        CLOUDY    83  64  52 VRB7      30.10S

$$

ANZ530>537-251800-
MARINE OBSERVATIONS

STATION/POSITION TIME  TEMP    WIND        PRES
                       AIR SEA DIR/SP/G
                 (UTC) (F)     (DEG/KT/KT) (MB)
THOMAS PT LIGHT  1700   78 78  170/  5/  6   N/A
BALT KEY BRIDGE  1648   80     280/  7/  9 1016.1F
COVE POINT       1648   78      40/  5/  7 1017.4F
LEWISETTA        1648   81 79   10/  6/  9 1016.8F
SOLOMONS ISLAND  1648   83 78  250/  4/  6   N/A
PINEY POINT      1636          300/  5/  7   N/A

$$





USA.gov is the U.S. government's official web portal to all federal, state and local government web resources and services.